| time (UTC) | temp F | wind direction | speed knots | gust knots | rain 1hr in | rain 24hr in | rain mn in | humidity % | barometer mb |
| 20260506185057 | 83 | 143 | 2.6 | 6.1 | 0.00 | 0.00 | 0.00 | 82 | 1007.0 |
| 20260506184556 | 83 | 130 | 7.8 | 8.7 | 0.00 | 0.00 | 0.00 | 81 | 1007.0 |
| 20260506184056 | 83 | 153 | 0.9 | 6.1 | 0.00 | 0.00 | 0.00 | 82 | 1007.0 |
| 20260506183557 | 83 | 130 | 3.5 | 5.2 | 0.00 | 0.00 | 0.00 | 81 | 1007.0 |
| 20260506183056 | 83 | 167 | 1.7 | 4.3 | 0.00 | 0.00 | 0.00 | 81 | 1007.0 |
| 20260506182556 | 84 | 155 | 3.5 | 9.6 | 0.00 | 0.00 | 0.00 | 80 | 1007.0 |
| 20260506182057 | 84 | 132 | 3.5 | 9.6 | 0.00 | 0.00 | 0.00 | 80 | 1007.0 |
| 20260506181129 | 84 | 140 | 3.5 | 4.3 | 0.00 | 0.00 | 0.00 | 79 | 1007.0 |
| 20260506180602 | 84 | 136 | 3.5 | 3.5 | 0.00 | 0.00 | 0.00 | 80 | 1007.0 |
| 20260506180058 | 84 | 193 | 0.9 | 7.8 | 0.00 | 0.00 | 0.00 | 80 | 1007.0 |
| 20260506175557 | 84 | 121 | 2.6 | 6.1 | 0.00 | 0.00 | 0.00 | 80 | 1008.0 |
| 20260506175056 | 84 | 124 | 4.3 | 7.0 | 0.00 | 0.00 | 0.00 | 79 | 1007.0 |
| 20260506174556 | 83 | 138 | 4.3 | 6.1 | 0.00 | 0.00 | 0.00 | 81 | 1008.0 |
| 20260506174057 | 83 | 133 | 1.7 | 7.0 | 0.00 | 0.00 | 0.00 | 81 | 1008.0 |
| 20260506173557 | 83 | 130 | 4.3 | 7.0 | 0.00 | 0.00 | 0.00 | 82 | 1008.0 |
| 20260506173057 | 83 | 167 | 1.7 | 7.8 | 0.00 | 0.00 | 0.00 | 82 | 1008.0 |
| 20260506172557 | 83 | 138 | 4.3 | 6.1 | 0.00 | 0.00 | 0.00 | 82 | 1008.0 |
| 20260506172056 | 83 | 217 | 0.0 | 4.3 | 0.00 | 0.00 | 0.00 | 83 | 1008.0 |
| 20260506171557 | 82 | 130 | 4.3 | 7.8 | 0.00 | 0.00 | 0.00 | 83 | 1008.0 |
| 20260506171056 | 82 | 106 | 6.1 | 6.1 | 0.00 | 0.00 | 0.00 | 84 | 1008.0 |
| 20260506170557 | 82 | 135 | 4.3 | 8.7 | 0.00 | 0.00 | 0.00 | 84 | 1008.0 |
| 20260506170057 | 82 | 137 | 2.6 | 6.1 | 0.00 | 0.00 | 0.00 | 84 | 1008.0 |
| 20260506165557 | 82 | 168 | 0.9 | 6.1 | 0.00 | 0.00 | 0.00 | 85 | 1008.0 |
| 20260506165057 | 82 | 125 | 5.2 | 5.2 | 0.00 | 0.00 | 0.00 | 86 | 1008.0 |
| 20260506164556 | 81 | 140 | 4.3 | 5.2 | 0.00 | 0.00 | 0.00 | 88 | 1008.0 |
| 20260506164056 | 80 | 131 | 3.5 | 5.2 | 0.00 | 0.00 | 0.00 | 88 | 1008.0 |
| 20260506163557 | 80 | 117 | 3.5 | 6.1 | 0.00 | 0.00 | 0.00 | 89 | 1008.0 |
| 20260506163056 | 80 | 149 | 3.5 | 8.7 | 0.00 | 0.00 | 0.00 | 89 | 1008.0 |
| 20260506162556 | 80 | 98 | 4.3 | 5.2 | 0.00 | 0.00 | 0.00 | 89 | 1008.0 |
| 20260506162057 | 80 | 193 | 2.6 | 5.2 | 0.00 | 0.00 | 0.00 | 89 | 1008.0 |
| 20260506161557 | 80 | 133 | 5.2 | 7.8 | 0.00 | 0.00 | 0.00 | 89 | 1008.0 |
| 20260506161058 | 80 | 315 | 0.0 | 4.3 | 0.00 | 0.00 | 0.00 | 89 | 1008.0 |
| 20260506160556 | 80 | 161 | 3.5 | 4.3 | 0.00 | 0.00 | 0.00 | 90 | 1008.0 |
| 20260506160058 | 79 | 232 | 0.0 | 2.6 | 0.00 | 0.00 | 0.00 | 90 | 1008.0 |
| 20260506155605 | 79 | 206 | 0.9 | 5.2 | 0.00 | 0.00 | 0.00 | 90 | 1008.0 |
| 20260506155056 | 79 | 210 | 1.7 | 3.5 | 0.00 | 0.00 | 0.00 | 90 | 1008.0 |
| 20260506154556 | 79 | 188 | 0.9 | 4.3 | 0.00 | 0.00 | 0.00 | 91 | 1008.0 |
| 20260506154056 | 79 | 163 | 3.5 | 6.1 | 0.00 | 0.00 | 0.00 | 90 | 1008.0 |
| 20260506153557 | 79 | 174 | 1.7 | 7.0 | 0.00 | 0.00 | 0.00 | 90 | 1007.0 |
| 20260506153057 | 79 | 138 | 1.7 | 3.5 | 0.00 | 0.00 | 0.00 | 90 | 1007.0 |
| 20260506152558 | 79 | 127 | 4.3 | 7.0 | 0.00 | 0.00 | 0.00 | 90 | 1008.0 |
| 20260506152058 | 79 | 139 | 2.6 | 6.1 | 0.00 | 0.00 | 0.00 | 90 | 1007.0 |
| 20260506151556 | 79 | 122 | 7.0 | 7.8 | 0.00 | 0.00 | 0.00 | 90 | 1007.0 |
| 20260506151058 | 79 | 128 | 5.2 | 7.0 | 0.00 | 0.00 | 0.00 | 90 | 1007.0 |
| 20260506150556 | 79 | 120 | 4.3 | 6.1 | 0.00 | 0.00 | 0.00 | 90 | 1007.0 |
| 20260506150056 | 79 | 126 | 7.8 | 9.6 | 0.00 | 0.00 | 0.00 | 90 | 1007.0 |
| 20260506145556 | 79 | 141 | 3.5 | 8.7 | 0.00 | 0.00 | 0.00 | 90 | 1007.0 |
| 20260506145057 | 79 | 200 | 1.7 | 5.2 | 0.00 | 0.00 | 0.00 | 91 | 1007.0 |
| 20260506144118 | 79 | 124 | 4.3 | 7.8 | 0.00 | 0.00 | 0.00 | 91 | 1007.0 |
| 20260506143556 | 79 | 151 | 1.7 | 5.2 | 0.00 | 0.00 | 0.00 | 91 | 1007.0 |
| 20260506143057 | 78 | 165 | 1.7 | 5.2 | 0.00 | 0.00 | 0.00 | 91 | 1007.0 |
| 20260506142556 | 79 | 129 | 2.6 | 6.1 | 0.00 | 0.00 | 0.00 | 91 | 1007.0 |
| 20260506142057 | 79 | 143 | 1.7 | 3.5 | 0.00 | 0.00 | 0.00 | 91 | 1007.0 |
| 20260506141556 | 79 | 152 | 1.7 | 4.3 | 0.00 | 0.00 | 0.00 | 91 | 1007.0 |
| 20260506141057 | 78 | 176 | 0.9 | 6.1 | 0.00 | 0.00 | 0.00 | 91 | 1007.0 |
| 20260506140556 | 78 | 138 | 2.6 | 7.0 | 0.00 | 0.00 | 0.00 | 92 | 1007.0 |
| 20260506140056 | 78 | 140 | 5.2 | 7.8 | 0.00 | 0.00 | 0.00 | 92 | 1007.0 |
| 20260506135557 | 78 | 118 | 1.7 | 7.0 | 0.00 | 0.00 | 0.00 | 92 | 1007.0 |
| 20260506135056 | 78 | 166 | 1.7 | 4.3 | 0.00 | 0.00 | 0.00 | 92 | 1007.0 |
| 20260506134557 | 78 | 171 | 0.9 | 3.5 | 0.00 | 0.00 | 0.00 | 93 | 1007.0 |
| 20260506134057 | 78 | 115 | 1.7 | 2.6 | 0.00 | 0.00 | 0.00 | 93 | 1007.0 |
| 20260506133557 | 78 | 109 | 2.6 | 3.5 | 0.00 | 0.00 | 0.00 | 93 | 1007.0 |
| 20260506133056 | 78 | 114 | 2.6 | 3.5 | 0.00 | 0.00 | 0.00 | 94 | 1007.0 |
| 20260506132559 | 77 | 144 | 2.6 | 4.3 | 0.00 | 0.00 | 0.00 | 94 | 1007.0 |
| 20260506132056 | 77 | 130 | 3.5 | 4.3 | 0.00 | 0.00 | 0.00 | 94 | 1007.0 |
| 20260506131556 | 77 | 146 | 2.6 | 3.5 | 0.00 | 0.00 | 0.00 | 94 | 1007.0 |
| 20260506131057 | 77 | 118 | 0.9 | 4.3 | 0.00 | 0.00 | 0.00 | 95 | 1007.0 |
| 20260506130556 | 77 | 124 | 2.6 | 4.3 | 0.00 | 0.00 | 0.00 | 95 | 1007.0 |
| 20260506130056 | 77 | 122 | 2.6 | 3.5 | 0.00 | 0.00 | 0.00 | 95 | 1007.0 |
| 20260506125606 | 77 | 137 | 2.6 | 4.3 | 0.00 | 0.00 | 0.00 | 95 | 1007.0 |
| 20260506125056 | 77 | 117 | 1.7 | 4.3 | 0.00 | 0.00 | 0.00 | 95 | 1007.0 |
| 20260506124559 | 77 | 118 | 0.9 | 3.5 | 0.00 | 0.00 | 0.00 | 95 | 1007.0 |
| 20260506124057 | 77 | 128 | 2.6 | 4.3 | 0.00 | 0.00 | 0.00 | 95 | 1007.0 |
| 20260506123556 | 77 | 134 | 1.7 | 4.3 | 0.00 | 0.00 | 0.00 | 95 | 1007.0 |
| 20260506123057 | 77 | 125 | 4.3 | 6.1 | 0.00 | 0.00 | 0.00 | 95 | 1007.0 |
| 20260506122557 | 77 | 130 | 3.5 | 4.3 | 0.00 | 0.00 | 0.00 | 94 | 1007.0 |
| 20260506122057 | 77 | 95 | 0.0 | 1.7 | 0.00 | 0.00 | 0.00 | 94 | 1007.0 |
| 20260506121558 | 77 | 118 | 0.9 | 3.5 | 0.00 | 0.00 | 0.00 | 94 | 1007.0 |
| 20260506121056 | 77 | 160 | 2.6 | 9.6 | 0.00 | 0.00 | 0.00 | 95 | 1007.0 |
| 20260506120557 | 77 | 154 | 4.3 | 6.1 | 0.00 | 0.00 | 0.00 | 95 | 1007.0 |
| 20260506120057 | 76 | 121 | 2.6 | 2.6 | 0.00 | 0.00 | 0.00 | 95 | 1007.0 |
| 20260506115556 | 76 | 112 | 5.2 | 8.7 | 0.00 | 0.00 | 0.00 | 95 | 1006.0 |
| 20260506115056 | 76 | 114 | 2.6 | 5.2 | 0.00 | 0.00 | 0.00 | 95 | 1006.0 |
| 20260506114556 | 76 | 116 | 1.7 | 4.3 | 0.00 | 0.00 | 0.00 | 95 | 1006.0 |
| 20260506114057 | 76 | 116 | 3.5 | 3.5 | 0.00 | 0.00 | 0.00 | 95 | 1006.0 |
| 20260506113557 | 76 | 126 | 4.3 | 4.3 | 0.00 | 0.00 | 0.00 | 95 | 1006.0 |
| 20260506113056 | 76 | 134 | 1.7 | 6.1 | 0.00 | 0.00 | 0.00 | 95 | 1006.0 |
| 20260506112557 | 76 | 131 | 1.7 | 2.6 | 0.00 | 0.00 | 0.00 | 95 | 1006.0 |
| 20260506112056 | 76 | 136 | 0.9 | 4.3 | 0.00 | 0.00 | 0.00 | 95 | 1006.0 |
| 20260506111557 | 77 | 132 | 4.3 | 7.8 | 0.00 | 0.00 | 0.00 | 95 | 1006.0 |
| 20260506111056 | 77 | 132 | 3.5 | 4.3 | 0.00 | 0.00 | 0.00 | 94 | 1006.0 |
| 20260506110600 | 77 | 130 | 4.3 | 7.8 | 0.00 | 0.00 | 0.00 | 94 | 1006.0 |
| 20260506110056 | 76 | 116 | 3.5 | 5.2 | 0.00 | 0.00 | 0.00 | 94 | 1006.0 |
| 20260506105556 | 76 | 193 | 0.9 | 3.5 | 0.00 | 0.00 | 0.00 | 94 | 1006.0 |
| 20260506105058 | 76 | 117 | 2.6 | 2.6 | 0.00 | 0.00 | 0.00 | 94 | 1006.0 |
| 20260506104556 | 76 | 151 | 1.7 | 7.0 | 0.00 | 0.00 | 0.00 | 95 | 1006.0 |
| 20260506104100 | 76 | 126 | 1.7 | 4.3 | 0.00 | 0.00 | 0.00 | 95 | 1006.0 |
| 20260506103556 | 76 | 132 | 5.2 | 6.1 | 0.00 | 0.00 | 0.00 | 95 | 1006.0 |
| 20260506103058 | 76 | 145 | 2.6 | 4.3 | 0.00 | 0.00 | 0.00 | 95 | 1006.0 |
| 20260506102556 | 76 | 131 | 1.7 | 4.3 | 0.00 | 0.00 | 0.00 | 95 | 1006.0 |
| 20260506102056 | 76 | 149 | 0.9 | 1.7 | 0.00 | 0.00 | 0.00 | 95 | 1006.0 |
| 20260506101556 | 76 | 195 | 0.0 | 1.7 | 0.00 | 0.00 | 0.00 | 95 | 1006.0 |
| 20260506101056 | 76 | 125 | 2.6 | 3.5 | 0.00 | 0.00 | 0.00 | 95 | 1006.0 |
| 20260506100556 | 76 | 144 | 0.9 | 4.3 | 0.00 | 0.00 | 0.00 | 95 | 1006.0 |
| 20260506100057 | 76 | 117 | 2.6 | 4.3 | 0.00 | 0.00 | 0.00 | 95 | 1006.0 |
| 20260506095556 | 76 | 123 | 3.5 | 3.5 | 0.00 | 0.00 | 0.00 | 95 | 1006.0 |
| 20260506095057 | 76 | 203 | 2.6 | 4.3 | 0.00 | 0.00 | 0.00 | 95 | 1006.0 |
| 20260506094556 | 76 | 114 | 2.6 | 6.1 | 0.00 | 0.00 | 0.00 | 95 | 1006.0 |
| 20260506094059 | 76 | 131 | 2.6 | 5.2 | 0.00 | 0.00 | 0.00 | 95 | 1006.0 |
| 20260506093556 | 76 | 158 | 3.5 | 7.0 | 0.00 | 0.00 | 0.00 | 95 | 1006.0 |
| 20260506093056 | 76 | 124 | 5.2 | 7.0 | 0.00 | 0.00 | 0.00 | 95 | 1006.0 |
| 20260506092556 | 76 | 146 | 0.9 | 4.3 | 0.00 | 0.00 | 0.00 | 95 | 1006.0 |
| 20260506092056 | 76 | 137 | 3.5 | 4.3 | 0.00 | 0.00 | 0.00 | 95 | 1006.0 |
| 20260506091556 | 76 | 153 | 3.5 | 7.0 | 0.00 | 0.00 | 0.00 | 95 | 1006.0 |
| 20260506091056 | 76 | 125 | 1.7 | 4.3 | 0.00 | 0.00 | 0.00 | 94 | 1006.0 |
| 20260506090556 | 76 | 120 | 3.5 | 5.2 | 0.00 | 0.00 | 0.00 | 94 | 1006.0 |
| 20260506090056 | 76 | 129 | 4.3 | 5.2 | 0.00 | 0.00 | 0.00 | 94 | 1006.0 |
| 20260506085556 | 76 | 101 | 1.7 | 4.3 | 0.00 | 0.00 | 0.00 | 94 | 1006.0 |
| 20260506085100 | 76 | 118 | 5.2 | 5.2 | 0.00 | 0.00 | 0.00 | 94 | 1006.0 |
| 20260506084557 | 76 | 132 | 1.7 | 4.3 | 0.00 | 0.00 | 0.00 | 94 | 1006.0 |
| 20260506084056 | 76 | 137 | 6.1 | 6.1 | 0.00 | 0.00 | 0.00 | 94 | 1006.0 |
| 20260506083558 | 76 | 118 | 0.9 | 5.2 | 0.00 | 0.00 | 0.00 | 94 | 1006.0 |
| 20260506083056 | 76 | 131 | 0.9 | 6.1 | 0.00 | 0.00 | 0.00 | 94 | 1006.0 |
| 20260506082556 | 76 | 146 | 1.7 | 4.3 | 0.00 | 0.00 | 0.00 | 94 | 1006.0 |
| 20260506082056 | 76 | 94 | 1.7 | 5.2 | 0.00 | 0.00 | 0.00 | 94 | 1006.0 |
| 20260506081556 | 76 | 133 | 1.7 | 2.6 | 0.00 | 0.00 | 0.00 | 94 | 1006.0 |
| 20260506081056 | 76 | 142 | 1.7 | 4.3 | 0.00 | 0.00 | 0.00 | 94 | 1006.0 |
| 20260506080557 | 76 | 129 | 2.6 | 2.6 | 0.00 | 0.00 | 0.00 | 93 | 1006.0 |
| 20260506073057 | 77 | 133 | 0.9 | 3.5 | 0.00 | 0.00 | 0.00 | 92 | 1007.0 |
| 20260506072556 | 77 | 144 | 4.3 | 4.3 | 0.00 | 0.00 | 0.00 | 92 | 1007.0 |
| 20260506072058 | 77 | 130 | 2.6 | 4.3 | 0.00 | 0.00 | 0.00 | 92 | 1007.0 |
| 20260506071556 | 77 | 124 | 2.6 | 3.5 | 0.00 | 0.00 | 0.00 | 92 | 1007.0 |
| 20260506071056 | 77 | 128 | 1.7 | 4.3 | 0.00 | 0.00 | 0.00 | 92 | 1007.0 |
| 20260506070557 | 77 | 144 | 2.6 | 5.2 | 0.00 | 0.00 | 0.00 | 92 | 1007.0 |
| 20260506062058 | 77 | 112 | 1.7 | 4.3 | 0.00 | 0.00 | 0.00 | 91 | 1007.0 |
| 20260506061557 | 77 | 154 | 3.5 | 7.8 | 0.00 | 0.00 | 0.00 | 91 | 1007.0 |
| 20260506061056 | 77 | 141 | 0.9 | 5.2 | 0.00 | 0.00 | 0.00 | 91 | 1007.0 |
| 20260506060556 | 77 | 136 | 4.3 | 5.2 | 0.00 | 0.00 | 0.00 | 91 | 1007.0 |
| 20260506051056 | 77 | 138 | 3.5 | 9.6 | 0.00 | 0.00 | 0.00 | 89 | 1007.0 |
| 20260506050556 | 77 | 99 | 3.5 | 6.1 | 0.00 | 0.00 | 0.00 | 89 | 1007.0 |
| 20260506045056 | 77 | 132 | 4.3 | 7.0 | 0.00 | 0.00 | 0.00 | 90 | 1007.0 |
| 20260506044556 | 77 | 142 | 1.7 | 3.5 | 0.00 | 0.00 | 0.00 | 90 | 1007.0 |
| 20260506044056 | 77 | 142 | 4.3 | 9.6 | 0.00 | 0.00 | 0.00 | 90 | 1007.0 |
| 20260506043558 | 77 | 142 | 3.5 | 7.8 | 0.00 | 0.00 | 0.00 | 90 | 1007.0 |
| 20260506043056 | 77 | 152 | 0.0 | 5.2 | 0.00 | 0.00 | 0.00 | 90 | 1007.0 |
| 20260506042556 | 77 | 127 | 5.2 | 6.1 | 0.00 | 0.00 | 0.00 | 90 | 1007.0 |
| 20260506042057 | 77 | 132 | 4.3 | 9.6 | 0.00 | 0.00 | 0.00 | 90 | 1007.0 |
| 20260506041557 | 77 | 128 | 7.8 | 8.7 | 0.00 | 0.00 | 0.00 | 89 | 1007.0 |
| 20260506041057 | 77 | 139 | 6.1 | 11.3 | 0.00 | 0.00 | 0.00 | 89 | 1007.0 |
| 20260506040556 | 77 | 131 | 1.7 | 7.8 | 0.00 | 0.00 | 0.00 | 89 | 1007.0 |
| 20260506040056 | 77 | 127 | 5.2 | 6.1 | 0.00 | 0.00 | 0.00 | 89 | 1007.0 |
| 20260506035556 | 77 | 190 | 1.7 | 7.0 | 0.00 | 0.00 | 0.00 | 89 | 1007.0 |
| 20260506035057 | 77 | 142 | 4.3 | 5.2 | 0.00 | 0.00 | 0.00 | 89 | 1007.0 |
| 20260506034556 | 77 | 103 | 1.7 | 7.0 | 0.00 | 0.00 | 0.00 | 89 | 1007.0 |
| 20260506034056 | 77 | 171 | 0.9 | 12.2 | 0.00 | 0.00 | 0.00 | 89 | 1007.0 |
| 20260506033556 | 77 | 112 | 0.0 | 3.5 | 0.00 | 0.00 | 0.00 | 90 | 1007.0 |
| 20260506033057 | 77 | 156 | 3.5 | 6.1 | 0.00 | 0.00 | 0.00 | 90 | 1007.0 |
| 20260506032556 | 77 | 141 | 3.5 | 7.8 | 0.00 | 0.00 | 0.00 | 90 | 1007.0 |
| 20260506032056 | 77 | 127 | 3.5 | 6.1 | 0.00 | 0.00 | 0.00 | 90 | 1006.0 |
| 20260506031556 | 77 | 129 | 3.5 | 7.0 | 0.00 | 0.00 | 0.00 | 90 | 1006.0 |
| 20260506031057 | 77 | 122 | 1.7 | 3.5 | 0.00 | 0.00 | 0.00 | 90 | 1006.0 |
| 20260506030556 | 77 | 143 | 1.7 | 7.8 | 0.00 | 0.00 | 0.00 | 90 | 1006.0 |
| 20260506030057 | 77 | 133 | 3.5 | 4.3 | 0.00 | 0.00 | 0.00 | 90 | 1007.0 |
| 20260506025556 | 77 | 192 | 0.9 | 7.0 | 0.00 | 0.00 | 0.00 | 90 | 1006.0 |
| 20260506025056 | 77 | 118 | 3.5 | 5.2 | 0.00 | 0.00 | 0.00 | 90 | 1006.0 |
| 20260506024556 | 77 | 134 | 3.5 | 7.0 | 0.00 | 0.00 | 0.00 | 89 | 1006.0 |
| 20260506024056 | 78 | 148 | 2.6 | 7.8 | 0.00 | 0.00 | 0.00 | 89 | 1006.0 |
| 20260506023556 | 78 | 133 | 2.6 | 4.3 | 0.00 | 0.00 | 0.00 | 89 | 1006.0 |
| 20260506023056 | 78 | 179 | 2.6 | 8.7 | 0.00 | 0.00 | 0.00 | 89 | 1006.0 |
| 20260506022556 | 78 | 133 | 3.5 | 5.2 | 0.00 | 0.00 | 0.00 | 89 | 1006.0 |
| 20260506022056 | 78 | 173 | 1.7 | 4.3 | 0.00 | 0.00 | 0.00 | 89 | 1006.0 |
| 20260506021556 | 78 | 139 | 4.3 | 6.1 | 0.00 | 0.00 | 0.00 | 89 | 1006.0 |
| 20260506021056 | 78 | 129 | 6.1 | 7.8 | 0.00 | 0.00 | 0.00 | 89 | 1006.0 |
| 20260506020556 | 78 | 124 | 0.9 | 4.3 | 0.00 | 0.00 | 0.00 | 89 | 1006.0 |
| 20260506020057 | 78 | 150 | 4.3 | 9.6 | 0.00 | 0.00 | 0.00 | 88 | 1005.0 |
| 20260506015557 | 78 | 132 | 1.7 | 5.2 | 0.00 | 0.00 | 0.00 | 88 | 1005.0 |
| 20260506015057 | 78 | 152 | 1.7 | 4.3 | 0.00 | 0.00 | 0.00 | 88 | 1005.0 |
| 20260506014556 | 78 | 154 | 0.9 | 7.0 | 0.00 | 0.00 | 0.00 | 87 | 1005.0 |
| 20260506014057 | 78 | 124 | 2.6 | 2.6 | 0.00 | 0.00 | 0.00 | 87 | 1005.0 |
| 20260506013556 | 78 | 170 | 0.9 | 5.2 | 0.00 | 0.00 | 0.00 | 86 | 1005.0 |
| 20260506013058 | 78 | 139 | 4.3 | 5.2 | 0.00 | 0.00 | 0.00 | 86 | 1005.0 |
| 20260506012556 | 78 | 108 | 2.6 | 3.5 | 0.00 | 0.00 | 0.00 | 86 | 1005.0 |
| 20260506012056 | 78 | 148 | 2.6 | 7.0 | 0.00 | 0.00 | 0.00 | 86 | 1005.0 |
| 20260506011556 | 78 | 166 | 1.7 | 4.3 | 0.00 | 0.00 | 0.00 | 86 | 1005.0 |
| 20260506011058 | 79 | 121 | 5.2 | 8.7 | 0.00 | 0.00 | 0.00 | 86 | 1005.0 |
| 20260506010557 | 79 | 145 | 0.9 | 3.5 | 0.00 | 0.00 | 0.00 | 86 | 1005.0 |
| 20260506010057 | 79 | 150 | 2.6 | 8.7 | 0.00 | 0.00 | 0.00 | 86 | 1005.0 |
| 20260506005557 | 79 | 166 | 3.5 | 8.7 | 0.00 | 0.00 | 0.00 | 85 | 1005.0 |
| 20260506005056 | 79 | 141 | 4.3 | 11.3 | 0.00 | 0.00 | 0.00 | 85 | 1005.0 |
| 20260506004556 | 79 | 138 | 0.9 | 6.1 | 0.00 | 0.00 | 0.00 | 85 | 1005.0 |
| 20260506004056 | 79 | 139 | 2.6 | 6.1 | 0.00 | 0.00 | 0.00 | 84 | 1005.0 |
| 20260506003556 | 79 | 143 | 7.8 | 9.6 | 0.00 | 0.00 | 0.00 | 84 | 1005.0 |
| 20260506003056 | 79 | 154 | 3.5 | 7.8 | 0.00 | 0.00 | 0.00 | 84 | 1005.0 |
| 20260506002556 | 79 | 156 | 2.6 | 5.2 | 0.00 | 0.00 | 0.00 | 84 | 1005.0 |
| 20260506002057 | 79 | 137 | 2.6 | 7.0 | 0.00 | 0.00 | 0.00 | 84 | 1004.0 |
| 20260506001556 | 79 | 123 | 1.7 | 5.2 | 0.00 | 0.00 | 0.00 | 83 | 1005.0 |
| 20260506001056 | 80 | 181 | 2.6 | 7.8 | 0.00 | 0.00 | 0.00 | 84 | 1005.0 |
| 20260506000556 | 80 | 175 | 1.7 | 7.0 | 0.00 | 0.00 | 0.00 | 83 | 1004.0 |
| 20260506000057 | 80 | 172 | 3.5 | 3.5 | 0.00 | 0.00 | 0.00 | 83 | 1005.0 |
| 20260505235556 | 80 | 152 | 3.5 | 7.0 | 0.00 | 0.00 | 0.00 | 83 | 1005.0 |
| 20260505235056 | 80 | 156 | 5.2 | 11.3 | 0.00 | 0.00 | 0.00 | 82 | 1004.0 |
| 20260505234556 | 80 | 150 | 4.3 | 7.8 | 0.00 | 0.00 | 0.00 | 82 | 1005.0 |
| 20260505234056 | 80 | 142 | 6.1 | 10.4 | 0.00 | 0.00 | 0.00 | 82 | 1004.0 |
| 20260505233556 | 80 | 139 | 4.3 | 10.4 | 0.00 | 0.00 | 0.00 | 82 | 1005.0 |
| 20260505233057 | 80 | 135 | 3.5 | 7.8 | 0.00 | 0.00 | 0.00 | 82 | 1005.0 |
| 20260505232556 | 80 | 118 | 4.3 | 9.6 | 0.00 | 0.00 | 0.00 | 81 | 1005.0 |
| 20260505232056 | 81 | 154 | 1.7 | 5.2 | 0.00 | 0.00 | 0.00 | 81 | 1005.0 |
| 20260505231557 | 81 | 129 | 5.2 | 6.1 | 0.00 | 0.00 | 0.00 | 80 | 1005.0 |
| 20260505231057 | 81 | 175 | 2.6 | 5.2 | 0.00 | 0.00 | 0.00 | 80 | 1005.0 |
| 20260505230557 | 81 | 140 | 2.6 | 5.2 | 0.00 | 0.00 | 0.00 | 79 | 1004.0 |
| 20260505230056 | 81 | 126 | 0.9 | 7.0 | 0.00 | 0.00 | 0.00 | 80 | 1005.0 |
| 20260505225556 | 81 | 140 | 9.6 | 9.6 | 0.00 | 0.00 | 0.00 | 79 | 1005.0 |
| 20260505225056 | 81 | 151 | 2.6 | 7.0 | 0.00 | 0.00 | 0.00 | 79 | 1005.0 |
| 20260505224557 | 81 | 143 | 1.7 | 13.0 | 0.00 | 0.00 | 0.00 | 79 | 1005.0 |
| 20260505224056 | 81 | 174 | 0.0 | 8.7 | 0.00 | 0.00 | 0.00 | 80 | 1005.0 |
| 20260505223556 | 81 | 164 | 0.9 | 7.0 | 0.00 | 0.00 | 0.00 | 80 | 1005.0 |
| 20260505223056 | 81 | 172 | 1.7 | 9.6 | 0.00 | 0.00 | 0.00 | 80 | 1005.0 |
| 20260505222600 | 81 | 160 | 2.6 | 10.4 | 0.00 | 0.00 | 0.00 | 80 | 1005.0 |
| 20260505222056 | 81 | 114 | 2.6 | 10.4 | 0.00 | 0.00 | 0.00 | 80 | 1005.0 |
| 20260505221556 | 81 | 121 | 5.2 | 5.2 | 0.00 | 0.00 | 0.00 | 80 | 1005.0 |
| 20260505221057 | 81 | 227 | 3.5 | 4.3 | 0.00 | 0.00 | 0.00 | 80 | 1005.0 |
| 20260505220557 | 81 | 130 | 1.7 | 6.1 | 0.00 | 0.00 | 0.00 | 80 | 1005.0 |
| 20260505220056 | 81 | 121 | 6.1 | 8.7 | 0.00 | 0.00 | 0.00 | 80 | 1005.0 |
| 20260505215556 | 81 | 159 | 3.5 | 5.2 | 0.00 | 0.00 | 0.00 | 80 | 1005.0 |
| 20260505215056 | 82 | 167 | 2.6 | 9.6 | 0.00 | 0.00 | 0.00 | 79 | 1005.0 |
| 20260505214556 | 82 | 180 | 2.6 | 6.1 | 0.00 | 0.00 | 0.00 | 79 | 1005.0 |
| 20260505214057 | 82 | 130 | 10.4 | 11.3 | 0.00 | 0.00 | 0.00 | 77 | 1005.0 |
| 20260505213556 | 82 | 107 | 1.7 | 6.1 | 0.00 | 0.00 | 0.00 | 78 | 1005.0 |
| 20260505213056 | 82 | 141 | 2.6 | 3.5 | 0.00 | 0.00 | 0.00 | 78 | 1005.0 |
| 20260505212556 | 82 | 143 | 3.5 | 5.2 | 0.00 | 0.00 | 0.00 | 77 | 1005.0 |
| 20260505212056 | 82 | 196 | 1.7 | 7.8 | 0.00 | 0.00 | 0.00 | 76 | 1005.0 |
| 20260505211556 | 83 | 162 | 1.7 | 6.1 | 0.00 | 0.00 | 0.00 | 75 | 1005.0 |
| 20260505211056 | 83 | 229 | 3.5 | 4.3 | 0.00 | 0.00 | 0.00 | 75 | 1005.0 |
| 20260505210556 | 83 | 128 | 4.3 | 4.3 | 0.00 | 0.00 | 0.00 | 74 | 1005.0 |
| 20260505210056 | 83 | 118 | 4.3 | 6.1 | 0.00 | 0.00 | 0.00 | 75 | 1005.0 |
| 20260505205556 | 83 | 228 | 3.5 | 7.8 | 0.00 | 0.00 | 0.00 | 75 | 1005.0 |
| 20260505205056 | 83 | 133 | 5.2 | 7.8 | 0.00 | 0.00 | 0.00 | 74 | 1006.0 |
| 20260505204556 | 83 | 205 | 2.6 | 5.2 | 0.00 | 0.00 | 0.00 | 74 | 1006.0 |
| 20260505204057 | 83 | 126 | 1.7 | 4.3 | 0.00 | 0.00 | 0.00 | 77 | 1006.0 |
| 20260505203556 | 83 | 151 | 1.7 | 3.5 | 0.00 | 0.00 | 0.00 | 77 | 1006.0 |
| 20260505203057 | 83 | 231 | 4.3 | 6.1 | 0.00 | 0.00 | 0.00 | 76 | 1006.0 |
| 20260505202556 | 83 | 166 | 1.7 | 6.1 | 0.00 | 0.00 | 0.00 | 76 | 1006.0 |
| 20260505202056 | 83 | 157 | 1.7 | 5.2 | 0.00 | 0.00 | 0.00 | 76 | 1006.0 |
| 20260505201556 | 83 | 212 | 1.7 | 7.8 | 0.00 | 0.00 | 0.00 | 76 | 1006.0 |
| 20260505201057 | 83 | 137 | 1.7 | 7.8 | 0.00 | 0.00 | 0.00 | 77 | 1006.0 |
| 20260505200556 | 83 | 230 | 2.6 | 5.2 | 0.00 | 0.00 | 0.00 | 77 | 1006.0 |
| 20260505200057 | 83 | 217 | 0.9 | 5.2 | 0.00 | 0.00 | 0.00 | 76 | 1006.0 |
| 20260505195556 | 83 | 210 | 0.0 | 2.6 | 0.00 | 0.00 | 0.00 | 78 | 1006.0 |
| 20260505195056 | 83 | 148 | 0.9 | 8.7 | 0.00 | 0.00 | 0.00 | 79 | 1006.0 |
| 20260505194556 | 83 | 188 | 2.6 | 5.2 | 0.00 | 0.00 | 0.00 | 79 | 1006.0 |
| 20260505194056 | 83 | 193 | 1.7 | 3.5 | 0.00 | 0.00 | 0.00 | 80 | 1007.0 |
| 20260505193556 | 83 | 62 | 0.0 | 2.6 | 0.00 | 0.00 | 0.00 | 78 | 1006.0 |
| 20260505193057 | 83 | 117 | 2.6 | 4.3 | 0.00 | 0.00 | 0.00 | 78 | 1006.0 |
| 20260505192556 | 83 | 75 | 0.0 | 2.6 | 0.00 | 0.00 | 0.00 | 78 | 1006.0 |
| 20260505192058 | 82 | 195 | 2.6 | 7.0 | 0.00 | 0.00 | 0.00 | 78 | 1006.0 |
| 20260505191557 | 82 | 264 | 1.7 | 3.5 | 0.00 | 0.00 | 0.00 | 79 | 1007.0 |
| 20260505191056 | 82 | 164 | 3.5 | 5.2 | 0.00 | 0.00 | 0.00 | 78 | 1006.0 |
| 20260505190556 | 82 | 193 | 2.6 | 4.3 | 0.00 | 0.00 | 0.00 | 78 | 1007.0 |
| 20260505190056 | 82 | 112 | 2.6 | 3.5 | 0.00 | 0.00 | 0.00 | 79 | 1006.0 |
| 20260505185557 | 81 | 133 | 2.6 | 6.1 | 0.00 | 0.00 | 0.00 | 80 | 1007.0 |